Location: Gleizolles
(44.4833°N, 6.7667°E)
Time: 11:49:54
(UTC+00:00)

Vanguard 2 - Pass Details

Date: 29 June 2024
Orbit: 552 x 2913 km, 32.9° (Epoch: 17 July)

Event Time Altitude Azimuth Distance (km) Brightness Sun altitude
Exits shadow 01:12:59 13° 164° (SSE) 3,776 10.6 -18.8°
Maximum altitude 01:17:59 18° 135° (SE) 3,859 10.9 -18.4°
Drops below altitude 10° 01:26:23 10° 98° (E) 5,137 11.9 -17.8°
Sets 01:32:50 0° 84° (E) 6,491 12.7 -17.3°
